GW1975 Weather Reports


Display with metric or nautical units.
time (UTC)temp
F
wind
direction
speed
MPH
gust
MPH
rain 1hr
in
rain 24hr
in
rain mn
in
humidity
%
barometer
mb
20260507083736 40 113 0.0 0.0 0.00 0.00 0.00 93 1020.0
20260507083235 40 129 0.0 0.0 0.00 0.00 0.00 93 1020.0
20260507082735 40 124 0.0 0.0 0.00 0.00 0.00 93 1020.0
20260507082236 40 145 0.0 0.0 0.00 0.00 0.00 93 1020.0
20260507081736 40 124 0.0 1.0 0.00 0.00 0.00 93 1020.0
20260507081235 40 129 0.0 0.0 0.00 0.00 0.00 93 1020.0
20260507080737 40 34 0.0 0.0 0.00 0.00 0.00 92 1020.0
20260507080235 40 34 0.0 0.0 0.00 0.00 0.00 92 1020.0
20260507075735 40 44 0.0 0.0 0.00 0.00 0.00 92 1020.0
20260507075238 41 142 0.0 0.0 0.00 0.00 0.00 92 1020.0
20260507074736 41 135 0.0 0.0 0.00 0.00 0.00 92 1020.0
20260507074236 41 135 0.0 0.0 0.00 0.00 0.00 92 1020.0
20260507073736 41 129 0.0 0.0 0.00 0.00 0.00 92 1020.0
20260507073235 41 129 0.0 0.0 0.00 0.00 0.00 92 1019.0
20260507072735 41 129 0.0 0.0 0.00 0.00 0.00 92 1020.0
20260507072236 41 129 0.0 0.0 0.00 0.00 0.00 91 1020.0
20260507071736 41 129 0.0 0.0 0.00 0.00 0.00 91 1019.0
20260507071235 41 315 0.0 0.0 0.00 0.00 0.00 91 1019.0
20260507070736 41 129 0.0 0.0 0.00 0.00 0.00 90 1019.0
20260507070236 41 44 0.0 0.0 0.00 0.00 0.00 90 1020.0
20260507065736 41 142 0.0 0.0 0.00 0.00 0.00 90 1019.0
20260507065238 42 142 0.0 0.0 0.00 0.00 0.00 90 1020.0
20260507064735 42 55 0.0 0.0 0.00 0.00 0.00 90 1020.0
20260507064235 42 309 0.0 0.0 0.00 0.00 0.00 90 1020.0
20260507063736 42 102 0.0 0.0 0.00 0.00 0.00 89 1020.0
20260507063236 42 102 0.0 0.0 0.00 0.00 0.00 88 1020.0
20260507062736 42 102 0.0 0.0 0.00 0.00 0.00 88 1020.0
20260507062236 42 102 0.0 0.0 0.00 0.00 0.00 87 1020.0
20260507061739 42 322 0.0 0.0 0.00 0.00 0.00 87 1020.0
20260507061236 43 322 0.0 0.0 0.00 0.00 0.00 87 1020.0
20260507060736 43 34 0.0 0.0 0.00 0.00 0.00 87 1020.0
20260507060236 43 322 0.0 0.0 0.00 0.00 0.00 86 1020.0
20260507055736 43 103 0.0 0.0 0.00 0.00 0.00 86 1020.0
20260507055237 44 37 0.0 0.0 0.00 0.00 0.00 86 1020.0
20260507054736 44 304 0.0 0.0 0.00 0.00 0.00 84 1020.0
20260507054235 44 113 0.0 0.0 0.00 0.00 0.00 82 1020.0
20260507053739 44 102 0.0 0.0 0.00 0.00 0.00 81 1020.0
20260507053235 44 102 0.0 0.0 0.00 0.00 0.00 80 1020.0
20260507052735 44 269 0.0 0.0 0.00 0.00 0.00 80 1020.0
20260507052236 45 217 0.0 0.0 0.00 0.00 0.00 79 1020.0
20260507051735 45 217 0.0 0.0 0.00 0.00 0.00 77 1020.0
20260507051236 45 217 0.0 0.0 0.00 0.00 0.00 76 1020.0
20260507050736 45 217 0.0 0.0 0.00 0.00 0.00 76 1019.0
20260507050235 46 297 0.0 0.0 0.00 0.00 0.00 76 1019.0
20260507045736 46 66 0.0 0.0 0.00 0.00 0.00 75 1019.0
20260507045235 46 66 0.0 0.0 0.00 0.00 0.00 74 1019.0
20260507044735 46 157 0.0 0.0 0.00 0.00 0.00 74 1019.0
20260507044236 46 142 0.0 0.0 0.00 0.00 0.00 73 1019.0
20260507043736 47 287 0.0 0.0 0.00 0.00 0.00 72 1019.0
20260507043237 47 304 0.0 0.0 0.00 0.00 0.00 73 1019.0
20260507042736 48 322 0.0 0.0 0.00 0.00 0.00 73 1019.0
20260507042236 48 230 0.0 0.0 0.00 0.00 0.00 71 1019.0
20260507041736 48 32 0.0 0.0 0.00 0.00 0.00 69 1019.0
20260507041238 49 32 0.0 0.0 0.00 0.00 0.00 65 1019.0
20260507040735 49 32 0.0 0.0 0.00 0.00 0.00 62 1019.0
20260507040235 49 37 0.0 0.0 0.00 0.00 0.00 61 1019.0
20260507035739 49 37 0.0 2.0 0.00 0.00 0.00 61 1019.0
20260507035235 50 51 1.0 2.0 0.00 0.00 0.00 60 1019.0
20260507034736 50 37 0.0 1.0 0.00 0.00 0.00 59 1019.0
20260507034236 50 322 0.0 1.0 0.00 0.00 0.00 58 1019.0
20260507033736 50 48 0.0 0.0 0.00 0.00 0.00 58 1019.0
20260507033237 50 25 0.0 0.0 0.00 0.00 0.00 58 1019.0
20260507032736 50 35 0.0 1.0 0.00 0.00 0.00 58 1019.0
20260507032235 50 0 0.0 1.0 0.00 0.00 0.00 58 1019.0
20260507031736 50 44 0.0 1.0 0.00 0.00 0.00 58 1019.0
20260507031235 50 20 1.0 2.0 0.00 0.00 0.00 59 1019.0
20260507030735 50 44 0.0 1.0 0.00 0.00 0.00 59 1019.0
20260507030235 50 24 0.0 1.0 0.00 0.00 0.00 60 1019.0
20260507025736 50 348 1.0 1.0 0.00 0.00 0.00 60 1019.0
20260507025236 50 345 0.0 1.0 0.00 0.00 0.00 62 1019.0
20260507024736 51 336 0.0 2.0 0.00 0.00 0.00 63 1019.0
20260507024235 51 331 0.0 1.0 0.00 0.00 0.00 61 1019.0
20260507023735 51 23 0.0 1.0 0.00 0.00 0.00 62 1019.0
20260507023235 51 6 0.0 1.0 0.00 0.00 0.00 63 1019.0
20260507022735 51 356 1.0 1.0 0.00 0.00 0.00 63 1019.0
20260507022237 51 333 0.0 1.0 0.00 0.00 0.00 63 1019.0
20260507021736 51 14 0.0 1.0 0.00 0.00 0.00 62 1019.0
20260507021235 51 31 0.0 1.0 0.00 0.00 0.00 63 1019.0
20260507020735 52 9 0.0 2.0 0.00 0.00 0.00 61 1019.0
20260507020236 53 42 0.0 1.0 0.00 0.00 0.00 58 1019.0
20260507015736 53 32 0.0 1.0 0.00 0.00 0.00 55 1019.0
20260507015236 53 25 0.0 0.0 0.00 0.00 0.00 54 1019.0
20260507014736 53 315 0.0 0.0 0.00 0.00 0.00 53 1018.0
20260507014236 54 315 0.0 0.0 0.00 0.00 0.00 53 1018.0
20260507013735 54 30 0.0 1.0 0.00 0.00 0.00 52 1018.0
20260507013235 54 333 0.0 1.0 0.00 0.00 0.00 52 1018.0
20260507012736 55 323 0.0 1.0 0.00 0.00 0.00 51 1018.0
20260507012236 55 23 0.0 1.0 0.00 0.00 0.00 50 1018.0
20260507011735 55 341 1.0 1.0 0.00 0.00 0.00 49 1018.0
20260507011235 56 44 0.0 0.0 0.00 0.00 0.00 48 1018.0
20260507010736 56 343 0.0 2.0 0.00 0.00 0.00 47 1018.0
20260507010236 56 17 0.0 0.0 0.00 0.00 0.00 47 1018.0
20260507005735 56 321 0.0 2.0 0.00 0.00 0.00 46 1018.0
20260507005235 56 327 0.0 2.0 0.00 0.00 0.00 47 1018.0
20260507004736 57 25 0.0 2.0 0.00 0.00 0.00 49 1018.0
20260507004236 57 336 2.0 3.0 0.00 0.00 0.00 49 1017.0
20260507003736 58 15 0.0 2.0 0.00 0.00 0.00 45 1018.0
20260507003236 58 4 1.0 2.0 0.00 0.00 0.00 43 1018.0
20260507002736 58 309 2.0 4.0 0.00 0.00 0.00 42 1017.0
20260507002236 58 315 3.0 3.0 0.00 0.00 0.00 44 1018.0
20260507001735 59 324 2.0 4.0 0.00 0.00 0.00 43 1018.0
20260507001236 59 32 0.0 4.0 0.00 0.00 0.00 44 1018.0
20260507000736 59 321 3.0 4.0 0.00 0.00 0.00 42 1018.0
20260507000236 59 77 0.0 3.0 0.00 0.00 0.00 46 1018.0
20260506235736 59 5 0.0 3.0 0.00 0.00 0.00 46 1017.0
20260506235236 59 255 4.0 5.0 0.00 0.00 0.00 44 1018.0
20260506234735 60 356 2.0 3.0 0.00 0.00 0.00 43 1018.0
20260506234236 59 279 2.0 4.0 0.00 0.00 0.00 42 1018.0
20260506233736 59 297 2.0 4.0 0.00 0.00 0.00 45 1018.0
20260506233235 59 305 2.0 5.0 0.00 0.00 0.00 43 1018.0
20260506232736 59 317 3.0 3.0 0.00 0.00 0.00 43 1018.0
20260506232236 60 298 3.0 4.0 0.00 0.00 0.00 44 1018.0
20260506231736 59 326 2.0 4.0 0.00 0.00 0.00 42 1018.0
20260506231236 59 282 3.0 5.0 0.00 0.00 0.00 41 1018.0
20260506230735 59 334 2.0 6.0 0.00 0.00 0.00 43 1018.0
20260506230237 60 328 5.0 5.0 0.00 0.00 0.00 41 1018.0
20260506225735 60 320 4.0 4.0 0.00 0.00 0.00 40 1018.0
20260506225235 60 6 1.0 3.0 0.00 0.00 0.00 41 1018.0
20260506224735 60 286 2.0 4.0 0.00 0.00 0.00 41 1017.0
20260506224236 60 347 0.0 4.0 0.00 0.00 0.00 40 1018.0
20260506223735 60 323 5.0 6.0 0.00 0.00 0.00 42 1018.0
20260506223236 60 305 4.0 5.0 0.00 0.00 0.00 41 1018.0
20260506222735 61 305 2.0 4.0 0.00 0.00 0.00 40 1018.0
20260506222237 60 251 2.0 5.0 0.00 0.00 0.00 40 1018.0
20260506221736 59 290 3.0 5.0 0.00 0.00 0.00 42 1018.0
20260506221235 60 328 3.0 6.0 0.00 0.00 0.00 40 1018.0
20260506220736 60 271 3.0 3.0 0.00 0.00 0.00 43 1018.0
20260506220236 61 299 0.0 4.0 0.00 0.00 0.00 38 1018.0
20260506215735 62 211 1.0 3.0 0.00 0.00 0.00 39 1018.0
20260506215235 61 276 4.0 5.0 0.00 0.00 0.00 40 1018.0
20260506214735 61 286 4.0 5.0 0.00 0.00 0.00 39 1018.0
20260506214235 61 0 1.0 3.0 0.00 0.00 0.00 38 1018.0
20260506213735 61 331 5.0 5.0 0.00 0.00 0.00 43 1018.0
20260506213236 60 286 3.0 4.0 0.00 0.00 0.00 42 1018.0
20260506212735 59 301 5.0 5.0 0.00 0.00 0.00 44 1018.0
20260506212235 60 312 2.0 5.0 0.00 0.00 0.00 40 1018.0
20260506211736 61 312 3.0 5.0 0.00 0.00 0.00 39 1018.0
20260506211236 58 335 2.0 2.0 0.00 0.00 0.00 42 1018.0
20260506210735 59 288 2.0 4.0 0.00 0.00 0.00 42 1018.0
20260506210236 59 333 5.0 6.0 0.00 0.00 0.00 43 1018.0
20260506205738 60 319 3.0 6.0 0.00 0.00 0.00 40 1018.0
20260506205235 62 14 3.0 4.0 0.00 0.00 0.00 40 1018.0
20260506204736 60 226 2.0 3.0 0.00 0.00 0.00 39 1018.0
20260506204236 61 279 3.0 5.0 0.00 0.00 0.00 39 1018.0
20260506203735 61 304 3.0 5.0 0.00 0.00 0.00 45 1018.0
20260506203235 59 351 1.0 5.0 0.00 0.00 0.00 41 1018.0
20260506202736 60 335 2.0 6.0 0.00 0.00 0.00 42 1019.0
20260506202236 61 6 3.0 6.0 0.00 0.00 0.00 41 1019.0
20260506201735 60 287 3.0 5.0 0.00 0.00 0.00 41 1019.0
20260506201236 60 309 5.0 6.0 0.00 0.00 0.00 44 1019.0
20260506200735 61 337 6.0 8.0 0.00 0.00 0.00 39 1019.0
20260506200235 60 272 2.0 4.0 0.00 0.00 0.00 43 1019.0
20260506195735 60 272 4.0 5.0 0.00 0.00 0.00 39 1019.0
20260506195235 61 7 1.0 7.0 0.00 0.00 0.00 40 1019.0
20260506194736 60 332 2.0 6.0 0.00 0.00 0.00 38 1019.0
20260506194238 60 333 5.0 5.0 0.00 0.00 0.00 39 1019.0
20260506193735 60 55 0.0 6.0 0.00 0.00 0.00 39 1019.0
20260506193235 60 276 3.0 6.0 0.00 0.00 0.00 38 1019.0
20260506192735 60 282 7.0 8.0 0.00 0.00 0.00 38 1019.0
20260506192236 59 297 3.0 5.0 0.00 0.00 0.00 42 1019.0
20260506191735 59 17 1.0 5.0 0.00 0.00 0.00 42 1019.0
20260506191236 60 277 3.0 6.0 0.00 0.00 0.00 45 1019.0
20260506190735 59 344 3.0 6.0 0.00 0.00 0.00 45 1019.0
20260506190235 60 50 5.0 8.0 0.00 0.00 0.00 44 1019.0
20260506185736 59 54 2.0 5.0 0.00 0.00 0.00 41 1019.0
20260506185236 59 297 3.0 5.0 0.00 0.00 0.00 44 1019.0
20260506184735 59 64 2.0 6.0 0.00 0.00 0.00 45 1019.0
20260506184236 58 347 2.0 3.0 0.00 0.00 0.00 43 1018.0
20260506183736 58 49 1.0 6.0 0.00 0.00 0.00 46 1019.0
20260506183237 59 294 4.0 5.0 0.00 0.00 0.00 45 1019.0
20260506182737 58 324 5.0 7.0 0.00 0.00 0.00 47 1019.0
20260506182236 58 288 3.0 8.0 0.00 0.00 0.00 45 1019.0
20260506181735 58 241 3.0 4.0 0.00 0.00 0.00 49 1019.0
20260506181236 58 288 4.0 6.0 0.00 0.00 0.00 43 1019.0
20260506180737 59 284 5.0 6.0 0.00 0.00 0.00 47 1019.0
20260506180236 58 324 4.0 5.0 0.00 0.00 0.00 44 1019.0
20260506175736 58 315 4.0 11.0 0.00 0.00 0.00 42 1019.0
20260506175236 57 295 3.0 7.0 0.00 0.00 0.00 49 1019.0
20260506174736 57 282 5.0 5.0 0.00 0.00 0.00 52 1019.0
20260506174237 57 33 4.0 11.0 0.00 0.00 0.00 52 1019.0
20260506173735 57 23 3.0 8.0 0.00 0.00 0.00 57 1019.0
20260506173236 57 322 3.0 7.0 0.00 0.00 0.00 63 1019.0
20260506172736 56 352 4.0 7.0 0.00 0.00 0.00 64 1019.0
20260506172238 56 358 2.0 6.0 0.00 0.00 0.00 63 1019.0
20260506171736 56 315 9.0 9.0 0.00 0.00 0.00 65 1019.0
20260506171236 55 315 3.0 4.0 0.00 0.00 0.00 65 1019.0
20260506170736 55 338 3.0 6.0 0.00 0.00 0.00 70 1019.0
20260506170236 54 287 1.0 4.0 0.00 0.00 0.00 72 1019.0
20260506165735 54 349 4.0 10.0 0.00 0.00 0.00 71 1019.0
20260506165237 54 280 0.0 5.0 0.00 0.00 0.00 72 1019.0
20260506164736 54 305 6.0 7.0 0.00 0.00 0.00 72 1019.0
20260506164236 53 301 3.0 5.0 0.00 0.00 0.00 72 1019.0
20260506163737 53 337 5.0 6.0 0.00 0.00 0.00 77 1019.0
20260506162751 52 294 3.0 7.0 0.00 0.00 0.00 78 1019.0
20260506162237 52 47 1.0 5.0 0.00 0.00 0.00 76 1019.0
20260506161736 52 287 3.0 5.0 0.00 0.00 0.00 80 1019.0
20260506161240 52 350 2.0 5.0 0.00 0.00 0.00 79 1019.0
20260506160737 52 256 2.0 5.0 0.00 0.00 0.00 79 1019.0
20260506160237 52 280 2.0 5.0 0.00 0.00 0.00 83 1019.0
20260506155736 51 309 2.0 4.0 0.00 0.00 0.00 83 1019.0
20260506155236 51 307 2.0 5.0 0.00 0.00 0.00 84 1019.0
20260506154736 51 321 1.0 4.0 0.00 0.00 0.00 83 1018.0
20260506154236 51 243 2.0 4.0 0.00 0.00 0.00 86 1018.0
20260506153736 51 286 3.0 4.0 0.00 0.00 0.00 85 1018.0
20260506153235 51 10 1.0 3.0 0.00 0.00 0.00 86 1018.0
20260506152735 50 257 3.0 3.0 0.00 0.00 0.00 86 1018.0
20260506152236 50 219 2.0 3.0 0.00 0.00 0.00 85 1018.0
20260506151735 50 200 1.0 3.0 0.00 0.00 0.00 88 1018.0
20260506151235 50 237 1.0 4.0 0.00 0.00 0.00 89 1018.0
20260506150736 50 311 3.0 4.0 0.00 0.00 0.00 88 1018.0
20260506150235 50 195 1.0 3.0 0.00 0.00 0.00 87 1018.0
20260506145736 50 212 1.0 3.0 0.00 0.00 0.00 90 1018.0
20260506145236 50 241 1.0 3.0 0.00 0.00 0.00 88 1018.0
20260506144735 50 246 1.0 3.0 0.00 0.00 0.00 88 1018.0
20260506144237 49 243 1.0 3.0 0.00 0.00 0.00 87 1018.0
20260506143737 49 248 1.0 4.0 0.00 0.00 0.00 88 1018.0
20260506143236 49 257 3.0 4.0 0.00 0.00 0.00 90 1018.0
20260506142736 49 259 3.0 6.0 0.00 0.00 0.00 90 1018.0
20260506142236 49 293 3.0 5.0 0.00 0.00 0.00 90 1018.0
20260506141736 49 281 4.0 5.0 0.00 0.00 0.00 91 1018.0
20260506141236 49 324 3.0 4.0 0.00 0.00 0.00 91 1018.0
20260506140735 48 265 3.0 4.0 0.00 0.00 0.00 91 1018.0
20260506140236 48 268 2.0 4.0 0.00 0.00 0.00 93 1018.0
20260506135736 48 217 2.0 3.0 0.00 0.00 0.00 93 1018.0
20260506135235 48 238 1.0 5.0 0.00 0.00 0.00 94 1018.0
20260506134735 48 273 3.0 3.0 0.00 0.00 0.00 96 1018.0
20260506134236 48 225 1.0 3.0 0.00 0.00 0.00 96 1018.0
20260506133736 48 227 1.0 3.0 0.00 0.00 0.00 97 1018.0
20260506133236 48 294 2.0 4.0 0.00 0.00 0.00 97 1018.0
20260506132735 47 225 2.0 4.0 0.00 0.00 0.00 97 1018.0
20260506132236 47 222 2.0 3.0 0.00 0.00 0.00 97 1018.0
20260506131736 47 256 2.0 3.0 0.00 0.00 0.00 97 1018.0
20260506131236 47 251 1.0 2.0 0.00 0.00 0.00 97 1018.0
20260506130736 47 239 0.0 3.0 0.00 0.00 0.00 97 1018.0
20260506130235 47 274 1.0 2.0 0.00 0.00 0.00 97 1018.0
20260506125736 47 244 3.0 3.0 0.00 0.00 0.00 97 1018.0
20260506125236 47 247 0.0 3.0 0.00 0.00 0.00 97 1018.0
20260506124736 47 14 1.0 3.0 0.00 0.00 0.00 97 1017.0
20260506124235 47 238 2.0 3.0 0.00 0.00 0.00 97 1018.0
20260506123736 46 275 2.0 2.0 0.00 0.00 0.00 97 1018.0
20260506123235 46 178 1.0 2.0 0.00 0.00 0.00 97 1018.0
20260506122735 46 256 2.0 3.0 0.00 0.00 0.00 97 1018.0
20260506122236 46 107 0.0 3.0 0.00 0.00 0.00 97 1018.0
20260506121736 46 268 2.0 3.0 0.00 0.00 0.00 97 1018.0
20260506121240 46 271 1.0 3.0 0.00 0.00 0.00 98 1017.0
20260506120735 46 244 1.0 4.0 0.00 0.00 0.00 98 1018.0
20260506120235 46 223 3.0 3.0 0.00 0.00 0.00 97 1017.0
20260506115735 46 293 1.0 4.0 0.00 0.00 0.00 97 1017.0
20260506115235 46 359 2.0 3.0 0.00 0.00 0.00 98 1017.0
20260506114736 46 250 1.0 3.0 0.00 0.00 0.00 97 1017.0
20260506114236 46 117 1.0 3.0 0.00 0.00 0.00 97 1018.0
20260506113735 46 242 2.0 5.0 0.00 0.00 0.00 98 1018.0
20260506113236 46 210 2.0 3.0 0.00 0.00 0.00 98 1017.0
20260506112735 46 277 3.0 3.0 0.00 0.00 0.00 98 1017.0
20260506112236 46 245 0.0 3.0 0.00 0.00 0.00 98 1017.0
20260506111736 46 229 1.0 3.0 0.00 0.00 0.00 98 1017.0
20260506111235 46 258 1.0 2.0 0.00 0.00 0.00 98 1017.0
20260506110735 46 298 2.0 2.0 0.00 0.00 0.00 98 1017.0
20260506110242 46 141 2.0 3.0 0.00 0.00 0.00 98 1016.0
20260506105736 46 253 2.0 2.0 0.00 0.00 0.00 98 1016.0
20260506105237 46 37 1.0 3.0 0.00 0.00 0.00 98 1016.0
20260506104736 46 136 0.0 3.0 0.00 0.00 0.00 98 1016.0
20260506104236 46 314 1.0 3.0 0.00 0.00 0.00 98 1016.0
20260506103735 46 330 0.0 3.0 0.00 0.00 0.00 98 1015.0
20260506103236 46 301 2.0 2.0 0.00 0.00 0.00 98 1015.0
20260506102736 46 196 1.0 3.0 0.00 0.00 0.00 98 1016.0
20260506102235 46 284 1.0 3.0 0.00 0.00 0.00 98 1016.0
20260506101735 46 299 1.0 3.0 0.00 0.00 0.00 98 1016.0
20260506101235 46 281 2.0 3.0 0.00 0.00 0.00 98 1015.0
20260506100735 45 160 0.0 2.0 0.00 0.00 0.00 98 1016.0
20260506100236 46 206 1.0 3.0 0.00 0.00 0.00 98 1015.0
20260506095736 46 280 1.0 3.0 0.00 0.00 0.00 98 1016.0
20260506095235 46 253 0.0 4.0 0.00 0.00 0.00 98 1016.0
20260506094735 46 310 2.0 3.0 0.00 0.00 0.00 98 1015.0
20260506094236 46 324 1.0 3.0 0.00 0.00 0.00 98 1015.0
20260506093735 46 209 1.0 3.0 0.00 0.00 0.00 98 1016.0
20260506093236 46 174 1.0 3.0 0.00 0.00 0.00 98 1016.0
20260506092736 46 197 1.0 3.0 0.00 0.00 0.00 98 1015.0
20260506092236 46 314 0.0 3.0 0.00 0.00 0.00 98 1015.0
20260506091735 46 273 2.0 4.0 0.00 0.00 0.00 98 1016.0
20260506091235 46 59 2.0 3.0 0.00 0.00 0.00 98 1016.0
20260506090737 46 238 0.0 4.0 0.00 0.00 0.00 98 1016.0
20260506090235 46 2 1.0 3.0 0.00 0.00 0.00 98 1016.0
20260506085735 46 235 2.0 3.0 0.00 0.00 0.00 98 1016.0
20260506085236 46 77 2.0 3.0 0.00 0.00 0.00 98 1016.0
20260506084736 46 302 1.0 4.0 0.00 0.00 0.00 98 1016.0
20260506084236 46 359 2.0 4.0 0.00 0.00 0.00 98 1016.0